Location: Newark
(49.0931°N, 0.8567°W)
Time: 09:31:07
(UTC+00:00)

N. Korean satellite - Visible Passes

Search period start: 29 January 2020 00:00
Search period end: 08 February 2020 00:00
Orbit: 454 x 507 km, 97.2° (Epoch: 28 January)

Date Brightness Start Highest point End Pass type
(mag) Time Alt. Az. Time Alt. Az. Time Alt. Az.
29 Jan 7.9 05:35:15 10° NNE 05:38:42 42° E 05:42:10 10° S visible
29 Jan 9.5 17:48:36 10° SW 17:51:17 21° W 17:53:59 10° NW visible
30 Jan 9.2 05:10:10 10° NE 05:13:04 22° E 05:15:58 10° SSE visible
30 Jan 7.3 06:43:17 10° N 06:46:30 31° WNW 06:49:43 10° SW visible
31 Jan 10.1 04:45:51 10° ENE 04:47:20 12° E 04:48:51 10° ESE visible
31 Jan 6.6 06:17:31 10° N 06:21:05 59° WNW 06:24:41 10° SSW visible
01 Feb 6.9 05:51:58 10° NNE 05:55:36 68° ESE 05:59:14 10° S visible
01 Feb 9.9 18:06:23 10° WSW 18:08:16 14° W 18:10:10 10° WNW visible
02 Feb 8.4 05:26:40 10° NNE 05:30:02 34° E 05:33:23 10° SSE visible
02 Feb 9.1 17:39:35 10° SSW 17:42:32 26° W 17:45:32 10° NW visible
03 Feb 9.5 05:01:44 10° NE 05:04:21 18° E 05:06:59 10° SE visible
03 Feb 7.1 06:34:29 10° N 06:37:53 38° WNW 06:41:18 10° SW visible
04 Feb 6.5 06:08:47 10° N 06:12:26 75° WNW 06:16:07 10° SSW visible
05 Feb 7.4 05:43:19 10° NNE 05:46:55 54° E 05:50:32 10° S visible
05 Feb 9.7 17:57:06 10° SW 17:59:29 17° W 18:01:54 10° NW visible
06 Feb 8.8 05:18:06 10° NE 05:21:19 28° E 05:24:32 10° SSE visible
06 Feb 7.6 06:51:33 10° N 06:54:38 26° WNW 06:57:43 10° SW visible
07 Feb 9.8 04:53:22 10° NE 04:55:36 15° E 04:57:51 10° SE visible
07 Feb 6.8 06:25:42 10° N 06:29:15 47° WNW 06:32:48 10° SSW visible
